Time,TemperatureF,DewpointF,PressureIn,WindDirection,WindDirectionDegrees,WindSpeedMPH,WindSpeedGustMPH,Humidity,HourlyPrecipIn,Conditions,Clouds,dailyrainin,SoftwareType,DateUTC
2016-02-07 00:04:00,36.0,30.0,30.32,West,278,7.0,-999.0,80,-99.99,,,-99.99,,2016-02-07 05:04:00,
2016-02-07 00:13:00,36.0,29.0,30.31,West,278,7.0,12.0,77,-99.99,,,-99.99,,2016-02-07 05:13:00,
2016-02-07 00:23:00,36.0,29.0,30.31,West,278,7.0,-999.0,77,-99.99,,,-99.99,,2016-02-07 05:23:00,
2016-02-07 00:43:00,36.0,30.0,30.30,NW,312,4.0,10.0,78,-99.99,,,-99.99,,2016-02-07 05:43:00,
2016-02-07 00:54:00,36.0,30.0,30.30,NW,312,4.0,10.0,78,-99.99,,,-99.99,,2016-02-07 05:54:00,
2016-02-07 01:04:00,36.0,30.0,30.30,WNW,296,4.0,9.0,79,-99.99,,,-99.99,,2016-02-07 06:04:00,
2016-02-07 01:23:00,36.0,30.0,30.29,West,280,5.0,11.0,79,-99.99,,,-99.99,,2016-02-07 06:23:00,
2016-02-07 01:44:00,35.0,30.0,30.28,WNW,289,3.0,7.0,81,-99.99,,,-99.99,,2016-02-07 06:44:00,
2016-02-07 01:54:00,35.0,30.0,30.28,WNW,289,3.0,7.0,81,-99.99,,,-99.99,,2016-02-07 06:54:00,
2016-02-07 02:04:00,35.0,30.0,30.28,SSW,208,3.0,7.0,82,-99.99,,,-99.99,,2016-02-07 07:04:00,
2016-02-07 02:13:00,35.0,30.0,30.28,SSW,208,3.0,7.0,82,-99.99,,,-99.99,,2016-02-07 07:13:00,
2016-02-07 02:24:00,35.0,30.0,30.27,WNW,285,3.0,6.0,83,-99.99,,,-99.99,,2016-02-07 07:24:00,
2016-02-07 02:34:00,34.0,30.0,30.27,WNW,289,2.0,5.0,84,-99.99,,,-99.99,,2016-02-07 07:34:00,
2016-02-07 02:44:00,34.0,30.0,30.27,WNW,289,2.0,5.0,85,-99.99,,,-99.99,,2016-02-07 07:44:00,
2016-02-07 02:54:00,34.0,30.0,30.27,WNW,289,2.0,5.0,85,-99.99,,,-99.99,,2016-02-07 07:54:00,
2016-02-07 03:04:00,34.0,29.0,30.27,West,270,2.0,7.0,83,-99.99,,,-99.99,,2016-02-07 08:04:00,
2016-02-07 03:13:00,34.0,30.0,30.28,WNW,287,2.0,6.0,84,-99.99,,,-99.99,,2016-02-07 08:13:00,
2016-02-07 03:34:00,34.0,30.0,30.27,West,274,3.0,5.0,84,-99.99,,,-99.99,,2016-02-07 08:34:00,
2016-02-07 03:44:00,34.0,30.0,30.27,WNW,302,2.0,6.0,84,-99.99,,,-99.99,,2016-02-07 08:44:00,
2016-02-07 03:54:00,34.0,30.0,30.27,WNW,302,2.0,6.0,84,-99.99,,,-99.99,,2016-02-07 08:54:00,
2016-02-07 04:03:00,34.0,30.0,30.27,WNW,289,2.0,7.0,84,-99.99,,,-99.99,,2016-02-07 09:03:00,
2016-02-07 04:13:00,34.0,30.0,30.26,WNW,284,3.0,7.0,84,-99.99,,,-99.99,,2016-02-07 09:13:00,
2016-02-07 04:23:00,34.0,30.0,30.26,WNW,284,3.0,7.0,84,-99.99,,,-99.99,,2016-02-07 09:23:00,
2016-02-07 04:34:00,33.0,29.0,30.26,NW,323,1.0,3.0,86,-99.99,,,-99.99,,2016-02-07 09:34:00,
2016-02-07 04:44:00,32.0,29.0,30.26,NW,318,1.0,3.0,88,-99.99,,,-99.99,,2016-02-07 09:44:00,
2016-02-07 05:04:00,32.0,29.0,30.25,NW,321,0.0,3.0,88,-99.99,,,-99.99,,2016-02-07 10:04:00,
2016-02-07 05:13:00,31.0,28.0,30.25,NW,322,0.0,1.0,89,-99.99,,,-99.99,,2016-02-07 10:13:00,
2016-02-07 05:24:00,31.0,28.0,30.25,NW,322,0.0,1.0,89,-99.99,,,-99.99,,2016-02-07 10:24:00,
2016-02-07 05:34:00,30.0,27.0,30.24,NW,325,1.0,3.0,90,-99.99,,,-99.99,,2016-02-07 10:34:00,
2016-02-07 05:44:00,30.0,28.0,30.24,NW,305,2.0,4.0,92,-99.99,,,-99.99,,2016-02-07 10:44:00,
2016-02-07 06:04:00,30.0,28.0,30.25,NW,322,0.0,2.0,91,-99.99,,,-99.99,,2016-02-07 11:04:00,
2016-02-07 06:13:00,30.0,28.0,30.24,NW,322,0.0,0.0,91,-99.99,,,-99.99,,2016-02-07 11:13:00,
2016-02-07 06:24:00,30.0,28.0,30.24,NW,322,0.0,0.0,91,-99.99,,,-99.99,,2016-02-07 11:24:00,
2016-02-07 06:34:00,29.0,26.0,30.24,NW,325,1.0,2.0,90,-99.99,,,-99.99,,2016-02-07 11:34:00,
2016-02-07 06:44:00,27.0,25.0,30.24,NNW,335,1.0,2.0,91,-99.99,,,-99.99,,2016-02-07 11:44:00,